User: anonymous   Login
Location: Caltech
(34.1382°N, 118.1253°W)
Time: 23:32:01
(UTC-07:00)
Language:

Cosmos 1975 - Orbit

View from above orbital plane
View from above orbital plane
View from above satellite
View from above satellite

Ground track
Ground track

The orbit data is extracted from the following two-line orbital elements,

1 19573U 88093A   16146.64714802  .00000434  00000-0  29520-4 0  9996
2 19573  82.5200   0.2912 0014732 171.5152 188.6327 15.03693874501565
Epoch (UTC): 25 May 2016 15:31:53
Eccentricity: 0.0014732
inclination: 82.5200°
perigee height: 545 km
apogee height: 566 km
right ascension of ascending node: 0.2912°
argument of perigee: 171.5152°
revolutions per day: 15.03693874
mean anomaly at epoch: 188.6327°
orbit number at epoch: 50156

The dashed part of the orbit path shows where the satellite is in the earth's shadow,  

DLR